[[{"header":{"parameterUnit":"m.s-1","parameterCategory":1,"la1":30.2991,"la2":30.254,"lo1":-89.0895,"lo2":-89.0444,"dy":0.0017,"dx":0.0017,"nx":28,"ny":28,"refTime":"2024-12-03T03:00:00:Z","depth":0,"parameterNumber":2,"parameterNumberName":"U-component_of_WINDS"},"data":[0,0,0,0,0,0,0,0,0,0,0,0,0,0,0,0,0,0,0,0,0,0,0,0,0,0,0,0,0,0,0,0,0,0,0,0,0,0,0,0,0,0,0,0,0,0,0,0,0,0,0,0,0,0,0,0,0,0,-3.0989,-3.099,0,-3.1047,-3.1047,-3.1048,-3.1063,-3.1063,-3.1062,-3.1062,-3.1119,-3.112,-3.1122,0,0,0,0,0,0,0,0,0,0,0,0,0,-3.0891,-3.0893,-3.0989,-3.099,-3.0991,-3.1047,-3.1047,-3.1048,-3.1063,-3.1063,-3.1062,-3.1062,-3.1118,-3.112,-3.1122,0,0,0,0,0,0,0,0,0,0,0,0,0,-3.094,-3.0893,-3.0989,-3.1005,-3.1007,-3.1047,-3.1047,-3.1048,-3.1063,-3.1062,-3.1062,-3.1061,-3.1117,-3.112,-3.1123,-3.115,0,0,-3.1131,-3.1132,0,0,0,0,0,0,0,0,-3.0937,-3.0943,-3.1002,-3.1004,-3.1006,-3.1047,-3.1034,-3.1082,-3.1063,-3.1042,-3.1062,-3.1061,-3.1095,-3.11,-3.1111,-3.1153,-3.1155,-3.1131,-3.1133,-3.1134,-3.1135,0,0,0,0,0,0,0,-3.0933,-3.0941,-3.1012,-3.1003,-3.1005,-3.1009,-3.1015,-3.1043,-3.107,-3.1043,-3.1045,-3.1051,-3.1096,-3.1109,-3.1113,-3.1156,-3.1131,-3.1134,-3.1135,-3.1136,-3.1223,-3.1224,0,0,0,0,0,0,-3.0928,-3.0938,-3.101,-3.1014,-3.097,-3.1011,-3.1018,-3.1034,-3.107,-3.1075,-3.1052,-3.1052,-3.1104,-3.111,-3.1115,-3.1149,-3.1134,-3.1137,-3.1138,-3.1223,-3.1223,-3.1224,0,0,0,0,0,0,-3.0925,-3.0934,-3.1008,-3.0976,-3.0986,-3.1013,-3.1032,-3.1036,-3.1049,-3.1077,-3.1081,-3.106,-3.1104,-3.1111,-3.1142,-3.1152,-3.1138,-3.114,-3.1222,-3.1223,-3.1224,-3.1218,0,0,0,0,0,0,-3.0923,-3.0933,-3.0944,-3.0976,-3.0987,-3.1034,-3.1032,-3.1037,-3.1054,-3.1054,-3.1085,-3.109,-3.1104,-3.1137,-3.1144,-3.1155,-3.1143,-3.1221,-3.1222,-3.1223,-3.1218,-3.1219,-3.122,0,0,0,0,0,-3.0919,-3.094,-3.0944,-3.0953,-3.1002,-3.1034,-3.1041,-3.1057,-3.1054,-3.1065,-3.1084,-3.1089,-3.115,-3.114,-3.1148,-3.116,-3.122,-3.1222,-3.1223,-3.1217,-3.1219,-3.122,0,0,0,0,0,0,-3.0907,-3.0944,-3.095,-3.0982,-3.1005,-3.1037,-3.1051,-3.1058,-3.1082,-3.1082,-3.1101,-3.1108,-3.1137,-3.1152,-3.1141,-3.1189,-3.1185,-3.1188,-3.1178,-3.118,-3.1181,-3.1176,-3.1145,0,0,0,0,0,-3.0908,-3.0932,-3.0963,-3.0988,-3.1,-3.1023,-3.1038,-3.1049,-3.1073,-3.1083,-3.1103,-3.1126,-3.1151,-3.1166,-3.119,-3.1221,-3.1227,-3.1233,-3.1234,-3.1235,-3.1237,-3.1254,-3.1257,-3.1229,-3.1229,-3.1229,0,0,-3.091,-3.0934,-3.0947,-3.0986,-3.1005,-3.1029,-3.1031,-3.1056,-3.1074,-3.1087,-3.1117,-3.1133,-3.1159,-3.119,-3.1205,-3.1203,-3.1247,-3.1237,-3.1237,-3.1239,-3.1256,-3.1259,-3.1261,-3.123,-3.123,-3.1229,0,0,-3.0926,-3.0947,-3.097,-3.0989,-3.1019,-3.1035,-3.104,-3.1072,-3.1083,-3.1114,-3.1124,-3.1145,-3.1187,-3.1205,-3.122,-3.1245,-3.1251,-3.1252,-3.1258,-3.1275,-3.1277,-3.1279,-3.1287,-3.129,-3.1255,-3.1255,-3.1255,0,-3.0925,-3.0962,-3.0981,-3.1005,-3.1022,-3.1036,-3.1059,-3.1077,-3.1113,-3.1124,-3.1122,-3.1175,-3.1194,-3.123,-3.1236,-3.1248,-3.1254,-3.1248,-3.1275,-3.1278,-3.128,-3.1288,-3.1291,-3.1255,-3.1255,-3.1255,-3.1255,0,-3.0959,-3.0984,-3.0999,-3.1034,-3.1053,-3.1076,-3.1099,-3.1115,-3.1125,-3.1141,-3.1172,-3.1196,-3.1225,-3.1235,-3.1244,-3.1271,-3.127,-3.1272,-3.1268,-3.1282,-3.129,-3.1293,-3.1254,-3.1255,-3.1255,-3.1255,0,0,-3.0967,-3.1013,-3.1018,-3.1034,-3.1068,-3.1088,-3.1113,-3.1142,-3.1156,-3.118,-3.1201,-3.1236,-3.1239,-3.1256,-3.1268,-3.1282,-3.13,-3.1283,-3.1284,-3.1284,-3.1331,-3.1329,-3.1332,-3.1305,-3.1306,-3.1306,-3.1329,0,-3.0987,-3.1032,-3.105,-3.1086,-3.111,-3.1124,-3.1146,-3.1169,-3.1185,-3.1207,-3.1224,-3.1249,-3.125,-3.1261,-3.1276,-3.1295,-3.131,-3.1294,-3.1324,-3.1324,-3.1315,-3.1336,-3.1334,-3.1354,-3.1332,-3.1333,-3.1333,0,-3.1016,-3.1041,-3.108,-3.1111,-3.1122,-3.1141,-3.1169,-3.1191,-3.1217,-3.1228,-3.1247,-3.1259,-3.1285,-3.1281,-3.1317,-3.1306,-3.132,-3.1331,-3.1332,-3.1334,-3.1329,-3.1338,-3.1361,-3.1363,-3.1338,-3.1338,-3.1337,0,-3.1017,-3.1061,-3.109,-3.1103,-3.1141,-3.1154,-3.117,-3.1197,-3.1213,-3.1238,-3.1249,-3.1277,-3.1292,-3.1313,-3.1331,-3.1327,-3.1365,-3.1363,-3.1374,-3.1374,-3.1381,-3.138,-3.1405,-3.1391,-3.1391,-3.1391,-3.1391,0,-3.1037,-3.1059,-3.1091,-3.1109,-3.1135,-3.1156,-3.1181,-3.1198,-3.1222,-3.1243,-3.1257,-3.1276,-3.13,-3.1323,-3.1337,-3.1365,-3.1372,-3.1381,-3.1384,-3.1379,-3.1377,-3.1387,-3.1386,-3.1392,-3.1392,-3.1392,-3.1392,0,-3.1042,-3.1064,-3.1096,-3.113,-3.1139,-3.1157,-3.1186,-3.1203,-3.122,-3.1247,-3.1254,-3.1281,-3.1308,-3.1329,-3.1365,-3.1375,-3.1403,-3.1408,-3.1394,-3.1396,-3.1406,-3.1405,-3.1437,-3.1442,-3.1426,-3.1426,-3.1426,0,-3.1052,-3.107,-3.1106,-3.1122,-3.1138,-3.1163,-3.118,-3.1202,-3.1219,-3.1251,-3.1265,-3.1294,-3.1317,-3.136,-3.1382,-3.1409,-3.1414,-3.1423,-3.1418,-3.1412,-3.1413,-3.1411,-3.1413,-3.1424,-3.1424,-3.1424,-3.1424,0,-3.1068,-3.1079,-3.1103,-3.1132,-3.1152,-3.1176,-3.12,-3.1212,-3.1238,-3.1256,-3.1285,-3.1303,-3.134,-3.1368,-3.1397,-3.1414,-3.1423,-3.1426,-3.143,-3.1424,-3.1415,-3.1419,-3.1395,-3.1424,-3.1424,-3.1424,-3.1424,-3.1424,-3.1076,-3.1093,-3.1121,-3.1148,-3.1168,-3.1191,-3.1209,-3.1229,-3.1253,-3.1285,-3.1296,-3.1325,-3.1352,-3.1393,-3.141,-3.1433,-3.1433,-3.1439,-3.144,-3.1441,-3.144,-3.1413,-3.1438,-3.1438,-3.1438,-3.1438,-3.1438,0,-3.1092,-3.1111,-3.1136,-3.1169,-3.1191,-3.1199,-3.1226,-3.1243,-3.1268,-3.1293,-3.1316,-3.1349,-3.1376,-3.1401,-3.143,-3.1444,-3.1448,-3.145,-3.1449,-3.1452,-3.1439,-3.1432,-3.1446,-3.1446,-3.1446,-3.1446,-3.1446,-3.1446,-3.1103,-3.1132,-3.1145,-3.1184,-3.1203,-3.1232,-3.1247,-3.1268,-3.1287,-3.1323,-3.1346,-3.1363,-3.1388,-3.1418,-3.1444,-3.1451,-3.146,-3.1461,-3.1468,-3.1454,-3.1453,-3.1452,-3.1446,-3.1463,-3.1463,-3.148,-3.148,-3.148]},{"header":{"parameterUnit":"m.s-1","parameterCategory":1,"la1":30.2991,"la2":30.254,"lo1":-89.0895,"lo2":-89.0444,"dy":0.0017,"dx":0.0017,"nx":28,"ny":28,"refTime":"2024-12-03T03:00:00:Z","depth":0,"parameterNumber":3,"parameterNumberName":"V-component_of_WINDS"},"data":[0,0,0,0,0,0,0,0,0,0,0,0,0,0,0,0,0,0,0,0,0,0,0,0,0,0,0,0,0,0,0,0,0,0,0,0,0,0,0,0,0,0,0,0,0,0,0,0,0,0,0,0,0,0,0,0,0,0,4.4626,4.4626,0,4.4628,4.4628,4.4628,4.4588,4.4587,4.4586,4.4585,4.4586,4.4587,4.4588,0,0,0,0,0,0,0,0,0,0,0,0,0,4.4588,4.4589,4.4626,4.4626,4.4626,4.4628,4.4628,4.4628,4.4588,4.4587,4.4585,4.4584,4.4586,4.4587,4.4588,0,0,0,0,0,0,0,0,0,0,0,0,0,4.4598,4.4589,4.4626,4.4606,4.4604,4.4628,4.4628,4.4628,4.4588,4.4587,4.4585,4.4583,4.4585,4.4587,4.4588,4.4631,0,0,4.4593,4.4594,0,0,0,0,0,0,0,0,4.4598,4.46,4.4609,4.4608,4.4606,4.4606,4.4615,4.4629,4.4589,4.4594,4.4584,4.4583,4.4594,4.4595,4.4599,4.4631,4.4631,4.4593,4.4594,4.4595,4.4595,0,0,0,0,0,0,0,4.4597,4.46,4.4627,4.4609,4.4607,4.4597,4.4597,4.4617,4.4603,4.4594,4.4591,4.4592,4.4593,4.4597,4.4598,4.4631,4.4593,4.4595,4.4596,4.4596,4.47,4.4701,0,0,0,0,0,0,4.4599,4.4599,4.4627,4.4627,4.4598,4.4599,4.4599,4.4607,4.4603,4.4601,4.4593,4.459,4.4595,4.4597,4.4598,4.4649,4.4595,4.4596,4.4597,4.4698,4.47,4.4702,0,0,0,0,0,0,4.4598,4.4602,4.4626,4.4612,4.4615,4.4602,4.4611,4.4608,4.4613,4.4602,4.46,4.46,4.4594,4.4596,4.4623,4.4648,4.4597,4.4599,4.4696,4.4698,4.4701,4.475,0,0,0,0,0,0,4.4598,4.4602,4.4618,4.4613,4.4615,4.4652,4.4613,4.461,4.4616,4.4611,4.4608,4.4606,4.4593,4.4621,4.4625,4.465,4.46,4.4693,4.4697,4.47,4.4746,4.4754,4.476,0,0,0,0,0,4.4596,4.4631,4.4619,4.4622,4.4635,4.4653,4.4654,4.4639,4.4618,4.4634,4.4627,4.4606,4.4645,4.4624,4.4628,4.4654,4.4692,4.4696,4.47,4.4742,4.4752,4.476,0,0,0,0,0,0,4.4638,4.463,4.4616,4.465,4.4653,4.4646,4.4666,4.4649,4.4657,4.4653,4.4633,4.4632,4.4663,4.4661,4.4638,4.4695,4.4665,4.467,4.4696,4.4705,4.4712,4.4712,4.4601,0,0,0,0,0,4.4651,4.4667,4.4658,4.4689,4.4691,4.4679,4.4686,4.4673,4.4675,4.4676,4.4671,4.4674,4.4687,4.4695,4.4706,4.4745,4.4744,4.4764,4.4772,4.4778,4.4783,4.4805,4.4814,4.4715,4.4715,4.4715,0,0,4.4678,4.4676,4.4687,4.4697,4.4698,4.4715,4.468,4.4698,4.4711,4.4679,4.4705,4.4702,4.4703,4.4737,4.4751,4.4736,4.481,4.4783,4.4788,4.4789,4.481,4.4819,4.4827,4.4718,4.4717,4.4717,0,0,4.4737,4.4736,4.4763,4.4764,4.4766,4.4757,4.4764,4.476,4.4757,4.4783,4.476,4.4774,4.4796,4.4799,4.4803,4.4865,4.4847,4.4869,4.4907,4.4929,4.4937,4.4944,4.4967,4.4975,4.4874,4.4874,4.4874,0,4.4771,4.4795,4.4778,4.4799,4.4805,4.4778,4.4805,4.4807,4.4812,4.4817,4.4799,4.4828,4.4827,4.4861,4.4877,4.488,4.4888,4.4869,4.4937,4.4944,4.495,4.4972,4.4981,4.4877,4.4876,4.4876,4.4876,0,4.4838,4.4855,4.4876,4.4883,4.4891,4.4915,4.4902,4.4912,4.49,4.4893,4.4921,4.4919,4.493,4.4937,4.4924,4.497,4.4961,4.4941,4.491,4.4962,4.4983,4.4991,4.4881,4.488,4.4879,4.4878,0,0,4.4922,4.492,4.4928,4.4932,4.4932,4.4946,4.4969,4.498,4.499,4.4995,4.5014,4.5034,4.5016,4.5021,4.5009,4.5027,4.5078,4.5005,4.5005,4.502,4.5131,4.5147,4.5157,4.5066,4.5067,4.5069,4.5131,0,4.498,4.502,4.5006,4.5047,4.5064,4.5038,4.5059,4.5062,4.5056,4.507,4.5064,4.5079,4.5053,4.5056,4.5074,4.5069,4.5101,4.5064,4.5085,4.5086,4.5086,4.5167,4.5184,4.5243,4.5139,4.514,4.5141,0,4.5053,4.5062,4.5105,4.5105,4.5111,4.513,4.514,4.5153,4.5156,4.5151,4.5158,4.5141,4.5165,4.5134,4.5166,4.5141,4.5149,4.5148,4.515,4.5152,4.5117,4.5173,4.5262,4.5271,4.5153,4.5152,4.5151,0,4.5113,4.5135,4.5164,4.5168,4.5167,4.5182,4.5182,4.5183,4.5192,4.52,4.5206,4.5217,4.5223,4.5232,4.522,4.5198,4.5255,4.5222,4.5252,4.5253,4.5266,4.5265,4.5358,4.5269,4.5269,4.5269,4.5269,0,4.518,4.5208,4.5191,4.5209,4.524,4.5224,4.5254,4.5252,4.5254,4.5271,4.5249,4.5266,4.5248,4.5263,4.5254,4.5283,4.5286,4.5283,4.528,4.5285,4.5286,4.5291,4.5287,4.5271,4.5271,4.527,4.527,0,4.5252,4.5242,4.5272,4.527,4.527,4.5293,4.5291,4.5307,4.5301,4.5324,4.5328,4.5318,4.5335,4.5324,4.534,4.5334,4.5373,4.5363,4.5372,4.537,4.5401,4.5399,4.5502,4.5515,4.5416,4.5417,4.5418,0,4.5296,4.5317,4.5317,4.5328,4.533,4.5347,4.5355,4.534,4.535,4.5356,4.5373,4.5388,4.54,4.5428,4.5423,4.5436,4.5427,4.5462,4.5429,4.5435,4.543,4.5429,4.5432,4.547,4.5471,4.5472,4.5472,0,4.5376,4.537,4.5384,4.5397,4.5408,4.5417,4.5424,4.5434,4.5419,4.5431,4.5449,4.5458,4.5476,4.5492,4.5503,4.5503,4.5486,4.5483,4.5491,4.5497,4.5502,4.5501,4.5392,4.5481,4.548,4.5479,4.5479,4.5478,4.5436,4.5454,4.5458,4.5474,4.5478,4.5486,4.5502,4.5499,4.5513,4.5527,4.5517,4.5538,4.5542,4.5555,4.5558,4.5575,4.5561,4.5572,4.5575,4.5578,4.5583,4.5498,4.5577,4.5576,4.5576,4.5576,4.5576,0,4.5516,4.5518,4.5533,4.5544,4.5558,4.554,4.5548,4.556,4.5579,4.5584,4.5597,4.5618,4.5633,4.5629,4.5644,4.5658,4.565,4.5662,4.5662,4.5662,4.5594,4.5587,4.5668,4.5668,4.5668,4.5668,4.5668,4.5668,4.556,4.559,4.5585,4.5618,4.5619,4.564,4.5646,4.5653,4.5658,4.5682,4.5696,4.5693,4.5695,4.5709,4.5723,4.5722,4.5728,4.5744,4.5739,4.5676,4.5667,4.5658,4.5651,4.5745,4.5745,4.5806,4.5807,4.5807]}]]